Location: Moscow
(55.7500°N, 37.5830°E)
Time: 08:29:41
(UTC+03:00)

N. Korean satellite - Pass Details

Date: 01 November 2021
Orbit: 446 x 495 km, 97.3° (Epoch: 04 December)

Event Time Altitude Azimuth Distance (km) Brightness Sun altitude
Rises 06:17:04 0° 12° (NNE) 2,595 10.3 -11.4°
Reaches altitude 10° 06:19:10 10° 10° (N) 1,703 9.3 -11.1°
Maximum altitude 06:22:49 66° 288° (WNW) 542 6.5 -10.6°
Drops below altitude 10° 06:26:22 10° 206° (SSW) 1,666 9.1 -10.1°
Sets 06:28:25 0° 203° (SSW) 2,533 10.1 -9.8°
